User: anonymous   Login
Location: Colossi of Memnon
(25.7167°N, 32.6167°E)
Time: 23:36:12
(UTC+00:00)
Language:

Cosmos 1190 Rocket - Orbit

View from above orbital plane
View from above orbital plane
View from above satellite
View from above satellite

Ground track
Ground track

The orbit data is extracted from the following two-line orbital elements,

1 11870U 80056B   21129.43695936  .00000123  00000-0  50257-4 0  9995
2 11870  74.0514 115.5095 0015092  73.5725 286.7086 14.37019258115231
Epoch (UTC): 09 May 2021 10:29:13
Eccentricity: 0.0015092
inclination: 74.0514°
perigee height: 757 km
apogee height: 779 km
right ascension of ascending node: 115.5095°
argument of perigee: 73.5725°
revolutions per day: 14.37019258
mean anomaly at epoch: 286.7086°
orbit number at epoch: 11523

The dashed part of the orbit path shows where the satellite is in the earth's shadow,  

DLR